When you browse on this site, cookies collect data to enhance your experience and personalize the content and advertising you see.
Visit our Privacy Policy to learn more. By continuing to use the site, you agree to this use of cookies and data.
  • In Netherlands
  • List of Countries
  • For 7 days
  • Water Temperature
  • Weather Map
  • Weather Widgets
  • user-avatar
    Login

    Hourly Weather Starica

    Today, 11 December, Wednesday

    Time Temperature Precipitation Wind Pressure Humidity
    00:00 +2°C° 0 mm 3 mps 743 mmHg 94%
    01:00 +3°C° 0 mm 2 mps 744 mmHg 95%
    02:00 +3°C° 0 mm 2 mps 744 mmHg 96%
    03:00 +1°C° 0.1 mm 3 mps 745 mmHg 96%
    04:00 +1°C° 0.1 mm 3 mps 745 mmHg 95%
    05:00 0°C° 0.1 mm 3 mps 745 mmHg 94%
    06:00 +1°C° 0 mm 2 mps 746 mmHg 92%
    07:00 -1°C° 0 mm 2 mps 747 mmHg 90%
    08:00 -2°C° 0 mm 2 mps 748 mmHg 90%
    09:00 -2°C° 0 mm 2 mps 748 mmHg 87%
    10:00 -2°C° 0 mm 2 mps 748 mmHg 85%
    11:00 +1°C° 0 mm 1 mps 748 mmHg 82%
    12:00 0°C° 0 mm 1 mps 748 mmHg 83%
    13:00 0°C° 0 mm 1 mps 749 mmHg 84%
    14:00 0°C° 0 mm 1 mps 749 mmHg 85%
    15:00 0°C° 0 mm 1 mps 749 mmHg 86%
    16:00 0°C° 0 mm 1 mps 749 mmHg 88%
    17:00 0°C° 0 mm 1 mps 749 mmHg 89%
    18:00 0°C° 0 mm 1 mps 749 mmHg 90%
    19:00 +1°C° 0 mm 1 mps 750 mmHg 90%
    20:00 +1°C° 0 mm 1 mps 750 mmHg 91%
    21:00 +1°C° 0 mm 1 mps 750 mmHg 92%
    22:00 +1°C° 0 mm 1 mps 750 mmHg 93%
    23:00 -1°C° 0 mm 2 mps 749 mmHg 94%

    Tomorrow, 12 December, Thursday

    Time Temperature Precipitation Wind Pressure Humidity
    00:00 -1°C° 0 mm 2 mps 750 mmHg 95%
    01:00 -1°C° 0 mm 2 mps 750 mmHg 96%
    02:00 +1°C° 0 mm 2 mps 750 mmHg 97%
    03:00 +1°C° 0 mm 2 mps 749 mmHg 96%
    04:00 +1°C° 0 mm 2 mps 749 mmHg 95%
    05:00 +1°C° 0 mm 2 mps 748 mmHg 95%
    06:00 +1°C° 0 mm 2 mps 749 mmHg 94%
    07:00 +1°C° 0 mm 2 mps 749 mmHg 93%
    08:00 -1°C° 0 mm 2 mps 749 mmHg 92%
    09:00 +1°C° 0 mm 2 mps 749 mmHg 91%
    10:00 +1°C° 0 mm 2 mps 748 mmHg 90%
    11:00 +1°C° 0 mm 3 mps 748 mmHg 90%
    12:00 +1°C° 0 mm 3 mps 748 mmHg 90%
    13:00 +1°C° 0 mm 3 mps 748 mmHg 91%
    14:00 +1°C° 0 mm 3 mps 748 mmHg 91%
    15:00 +1°C° 0 mm 3 mps 748 mmHg 92%
    16:00 +1°C° 0 mm 3 mps 747 mmHg 92%
    17:00 0°C° 0 mm 4 mps 747 mmHg 93%
    18:00 0°C° 0 mm 4 mps 747 mmHg 93%
    19:00 0°C° 0 mm 4 mps 747 mmHg 92%
    20:00 -1°C° 0 mm 4 mps 747 mmHg 92%
    21:00 -1°C° 0 mm 4 mps 747 mmHg 92%
    22:00 0°C° 0 mm 4 mps 746 mmHg 91%
    23:00 0°C° 0 mm 4 mps 746 mmHg 91%

    Day after tomorrow, 13 December, Friday

    Time Temperature Precipitation Wind Pressure Humidity
    00:00 0°C° 0 mm 4 mps 746 mmHg 91%
    01:00 0°C° 0 mm 4 mps 746 mmHg 92%
    02:00 0°C° 0 mm 4 mps 746 mmHg 92%
    03:00 -1°C° 0 mm 4 mps 746 mmHg 93%
    04:00 -1°C° 0 mm 4 mps 745 mmHg 93%
    05:00 -1°C° 0 mm 4 mps 745 mmHg 94%
    06:00 -1°C° 0 mm 4 mps 745 mmHg 92%
    07:00 -2°C° 0 mm 4 mps 745 mmHg 91%
    08:00 -1°C° 0 mm 3 mps 745 mmHg 89%
    09:00 -2°C° 0 mm 4 mps 745 mmHg 88%
    10:00 -1°C° 0 mm 4 mps 745 mmHg 86%
    11:00 -1°C° 0 mm 4 mps 745 mmHg 85%
    12:00 -1°C° 0 mm 4 mps 745 mmHg 85%
    13:00 -1°C° 0 mm 4 mps 744 mmHg 84%
    14:00 -1°C° 0 mm 4 mps 744 mmHg 84%
    15:00 -2°C° 0 mm 4 mps 744 mmHg 85%
    16:00 -2°C° 0 mm 4 mps 744 mmHg 85%
    17:00 -1°C° 0 mm 3 mps 744 mmHg 86%
    18:00 -1°C° 0 mm 3 mps 744 mmHg 86%
    19:00 -1°C° 0 mm 3 mps 744 mmHg 85%
    20:00 -1°C° 0 mm 3 mps 744 mmHg 85%
    21:00 -1°C° 0 mm 3 mps 744 mmHg 86%
    22:00 -1°C° 0 mm 3 mps 744 mmHg 87%
    23:00 -3°C° 0 mm 4 mps 744 mmHg 88%

    14 December, Saturday

    Time Temperature Precipitation Wind Pressure Humidity
    00:00 -2°C° 0 mm 4 mps 744 mmHg 88%
    01:00 -2°C° 0 mm 4 mps 744 mmHg 88%
    02:00 -1°C° 0 mm 3 mps 744 mmHg 88%
    03:00 -2°C° 0 mm 4 mps 744 mmHg 89%
    04:00 -2°C° 0 mm 4 mps 744 mmHg 90%
    05:00 -2°C° 0 mm 4 mps 743 mmHg 90%
    06:00 -2°C° 0 mm 4 mps 744 mmHg 89%
    07:00 -2°C° 0 mm 4 mps 744 mmHg 88%
    08:00 -2°C° 0 mm 4 mps 744 mmHg 87%
    09:00 -2°C° 0 mm 4 mps 744 mmHg 85%
    10:00 -2°C° 0 mm 4 mps 744 mmHg 83%
    11:00 -2°C° 0 mm 4 mps 744 mmHg 81%
    12:00 -2°C° 0 mm 4 mps 744 mmHg 81%
    13:00 -2°C° 0 mm 4 mps 744 mmHg 82%
    14:00 -2°C° 0 mm 4 mps 744 mmHg 83%
    15:00 -2°C° 0 mm 4 mps 744 mmHg 83%
    16:00 -3°C° 0 mm 4 mps 744 mmHg 84%
    17:00 -3°C° 0 mm 4 mps 743 mmHg 84%
    18:00 -3°C° 0 mm 4 mps 743 mmHg 84%
    19:00 -3°C° 0 mm 4 mps 743 mmHg 84%
    20:00 -3°C° 0 mm 4 mps 743 mmHg 84%
    21:00 -3°C° 0 mm 4 mps 743 mmHg 84%
    22:00 -3°C° 0 mm 4 mps 743 mmHg 84%
    23:00 -3°C° 0 mm 4 mps 743 mmHg 84%

    15 December, Sunday

    Time Temperature Precipitation Wind Pressure Humidity
    00:00 -3°C° 0.1 mm 4 mps 743 mmHg 86%
    01:00 -3°C° 0.1 mm 4 mps 742 mmHg 87%
    02:00 -3°C° 0.1 mm 4 mps 742 mmHg 89%
    03:00 -2°C° 0.1 mm 4 mps 742 mmHg 90%
    04:00 -2°C° 0.1 mm 4 mps 741 mmHg 90%
    05:00 -1°C° 0.1 mm 4 mps 741 mmHg 90%
    06:00 -1°C° 0.3 mm 4 mps 740 mmHg 91%
    07:00 0°C° 0.3 mm 5 mps 740 mmHg 92%
    08:00 0°C° 0.3 mm 5 mps 740 mmHg 93%
    09:00 0°C° 0.3 mm 5 mps 739 mmHg 93%
    10:00 +1°C° 0.3 mm 4 mps 739 mmHg 93%
    11:00 +1°C° 0.3 mm 4 mps 739 mmHg 93%
    12:00 +1°C° 0.4 mm 4 mps 739 mmHg 94%
    13:00 +1°C° 0.4 mm 4 mps 739 mmHg 94%
    14:00 +1°C° 0.4 mm 4 mps 738 mmHg 95%
    15:00 +1°C° 0.1 mm 4 mps 739 mmHg 94%
    16:00 +2°C° 0.1 mm 3 mps 739 mmHg 94%
    17:00 +2°C° 0.1 mm 3 mps 739 mmHg 94%
    18:00 +1°C° 0 mm 3 mps 739 mmHg 92%
    19:00 0°C° 0 mm 4 mps 740 mmHg 90%
    20:00 0°C° 0 mm 4 mps 740 mmHg 88%
    21:00 0°C° 0 mm 4 mps 740 mmHg 89%
    22:00 -1°C° 0 mm 4 mps 740 mmHg 90%
    23:00 -2°C° 0 mm 4 mps 741 mmHg 91%

    16 December, Monday

    Time Temperature Precipitation Wind Pressure Humidity
    00:00 -1°C° 0 mm 4 mps 740 mmHg 91%
    01:00 0°C° 0 mm 3 mps 740 mmHg 91%
    02:00 0°C° 0 mm 3 mps 740 mmHg 91%
    03:00 -1°C° 0 mm 4 mps 739 mmHg 91%
    04:00 -1°C° 0 mm 4 mps 738 mmHg 91%
    05:00 0°C° 0 mm 5 mps 737 mmHg 90%
    06:00 0°C° 0.8 mm 5 mps 736 mmHg 92%
    07:00 -1°C° 0.8 mm 6 mps 735 mmHg 94%
    08:00 +1°C° 0.8 mm 6 mps 735 mmHg 96%
    09:00 +1°C° 0.9 mm 6 mps 735 mmHg 92%
    10:00 +1°C° 0.9 mm 6 mps 735 mmHg 88%
    11:00 +1°C° 0.9 mm 6 mps 735 mmHg 84%
    12:00 -1°C° 0.1 mm 6 mps 735 mmHg 84%
    13:00 -1°C° 0.1 mm 7 mps 736 mmHg 85%
    14:00 -1°C° 0.1 mm 7 mps 736 mmHg 85%
    15:00 -1°C° 0.1 mm 7 mps 737 mmHg 83%
    16:00 -1°C° 0.1 mm 7 mps 738 mmHg 82%
    17:00 -1°C° 0.1 mm 7 mps 739 mmHg 80%
    18:00 -1°C° 0 mm 7 mps 739 mmHg 82%
    19:00 -1°C° 0 mm 6 mps 740 mmHg 84%
    20:00 -2°C° 0 mm 6 mps 740 mmHg 87%
    21:00 -2°C° 0 mm 6 mps 740 mmHg 85%
    22:00 -2°C° 0 mm 6 mps 741 mmHg 83%
    23:00 -2°C° 0 mm 6 mps 741 mmHg 81%
    Show more